Regional Weather Roundup
Issued by NWS

Home | Current Version | Previous Version | Text Only | Print | Product List | Glossary On
Versions: 1 2 3 4 5 6 7 8 9 10 11 12 13 14 15 16 17 18 19 20 21 22 23 24 25 26 27
000
ASUS46 KPQR 230310
RWROR

OREGON REGIONAL WEATHER ROUNDUP
NATIONAL WEATHER SERVICE PORTLAND OR
700 PM PST SUN JAN 22 2017

NOTE: "FAIR" INDICATES FEW OR NO CLOUDS BELOW 12,000 FEET WITH
NO SIGNIFICANT WEATHER AND/OR OBSTRUCTIONS TO VISIBILITY.

ORZ001>013-230400-
NORTHWEST OREGON


CITY           SKY/WX    TMP DP  RH WIND       PRES   REMARKS
ASTORIA        PTCLDY    44  35  70 E6        29.50R
NEWPORT        LGT RAIN  43  37  81 S14G21    29.53S
PORTLAND       CLOUDY    40  36  86 SE8       29.56F WCI  34
VANCOUVER WA   MOCLDY    40  36  86 CALM      29.56F
SCAPPOOSE      CLOUDY    40  36  86 SW7       29.56R
HILLSBORO      CLOUDY    41  37  86 NE7       29.54F
AURORA         CLOUDY    44  34  67 CALM      29.56S
MCMINNVILLE    CLOUDY    44  36  73 CALM      29.55S
SALEM          CLOUDY    42  36  79 E5        29.53S
CORVALLIS        N/A     41  37  87 CALM      29.53R
EUGENE         CLOUDY    43  36  76 W5        29.53R
$$

ORZ021-028-230400-
SOUTHWEST OREGON


CITY           SKY/WX    TMP DP  RH WIND       PRES   REMARKS
NORTH BEND     PTCLDY    43  39  87 SE14      29.54S
BROOKINGS      LGT RAIN  41  38  89 SE9       29.58R
ROSEBURG       CLOUDY    47  32  56 S6        29.54R
SEXTON SUMMIT  FOG       29  28  96 S14G21    29.46S VSB 1/4 WCI  18
MEDFORD        CLOUDY    42  35  76 NW8       29.54R
$$

ORZ014>016-041-230400-
COLUMBIA GORGE


CITY           SKY/WX    TMP DP  RH WIND       PRES   REMARKS
TROUTDALE      MOCLDY    41  36  82 E20       29.56F
THE DALLES     FOG       32  32 100 CALM      29.65R VSB 1/4
$$

ORZ029>031-041-044-049-050-061>064-502-503-505>511-230400-
EASTERN OREGON


CITY           SKY/WX    TMP DP  RH WIND       PRES   REMARKS
REDMOND        MOCLDY    33  15  47 SE3       29.52S
BEND           MOCLDY    32  16  51 SE6       29.52S WCI  26
PRINEVILLE     MOCLDY    34  19  55 S12       29.53S WCI  25
KLAMATH FALLS  CLOUDY    30  26  85 S5        29.51S WCI  25
LAKEVIEW       MOCLDY    19  14  79 NW5       29.54S WCI  13
HERMISTON      PTCLDY    32  31  96 SE5       29.64S WCI  27
PENDLETON      PTCLDY    31  29  92 S8        29.63R WCI  23
JOHN DAY       CLEAR     30  25  83 CALM      29.59S
MEACHAM        PTCLDY    25  20  81 CALM      29.59S
LA GRANDE      PTCLDY    32  28  86 S3        29.63S
BAKER CITY     FOG       17  16  95 W5        29.64R VSB 1/4 WCI  10
BURNS          PTCLDY    10   8  92 W3        29.59F
ROME             N/A     30  23  75 SE9       29.58F WCI  22
ONTARIO        FOG       25  23  92 NW6       29.69S VSB 3/4 WCI  18
$$




USA.gov is the U.S. government's official web portal to all federal, state and local government web resources and services.